User: anonymous
Location: Standeford and Andreas Observatories
(44.1397°N, 93.9969°W)
Time: 14:28:09
(UTC-05:00)
Language:

Cosmos 1500 Rocket - Orbit

View from above orbital plane
View from above orbital plane
View from above satellite
View from above satellite

Ground track
Ground track

The orbit data is extracted from the following two-line orbital elements,

1 14373U 83099B   14259.11994214  .00000388  00000-0  44535-4 0  7609
2 14373 082.5384 103.5679 0018965 304.1065 193.2471 14.83139659671863
Epoch (UTC): 16 September 2014 02:52:43
Eccentricity: 0.0018965
inclination: 82.5384°
perigee height: 606 km
apogee height: 633 km
right ascension of ascending node: 103.5679°
argument of perigee: 304.1065°
revolutions per day: 14.83139659
mean anomaly at epoch: 193.2471°
orbit number at epoch: 67186

The dashed part of the orbit path shows where the satellite is in the earth's shadow,  

DLR